Overview Statistics Trail Chart Weather Telemetry Raw packets
 

This is the latest recevied weather packets stored in our database for station/object VE8SKI. If no packets are shown the sender has not sent any weather packets the latest 10 day(s).

<< 9 10 11 12 13 14 15 >>
Time Temp. Humidity Pressure Rain* Wind** Luminosity Snow
1778033913 7.22° C 52% 1016.7 hPa 0 mm 0 m/s - -
1778033614 7.22° C 52% 1016.8 hPa 0 mm 0 m/s - -
1778033314 7.22° C 51% 1016.8 hPa 0 mm 2.68 m/s, 231° - -
1778033015 7.78° C 49% 1016.8 hPa 0 mm 2.68 m/s, 186° - -
1778032715 7.78° C 48% 1016.9 hPa 0 mm 2.68 m/s, 187° - -
1778032413 7.78° C 47% 1016.9 hPa 0 mm 2.24 m/s, 184° - -
1778032113 7.78° C 46% 1017 hPa 0 mm 4.02 m/s, 297° - -
1778031814 7.78° C 47% 1017.1 hPa 0 mm 2.68 m/s, 235° - -
1778031515 7.78° C 46% 1017.2 hPa 0 mm 2.24 m/s, 201° - -
1778031215 7.78° C 46% 1017.3 hPa 0 mm 2.24 m/s, 232° - -
1778030916 7.78° C 47% 1017.4 hPa 0 mm 3.13 m/s, 200° - -
1778030613 7.78° C 47% 1017.5 hPa 0 mm 3.13 m/s, 117° - -
1778030314 7.78° C 47% 1017.5 hPa 0 mm 1.79 m/s, 217° - -
1778030014 7.78° C 47% 1017.7 hPa 0 mm 2.68 m/s, 242° - -
1778029715 7.78° C 47% 1017.7 hPa 0 mm 2.24 m/s, 229° - -
1778029415 7.78° C 47% 1017.8 hPa 0 mm 2.24 m/s, 235° - -
1778029116 7.78° C 47% 1018 hPa 0 mm 2.24 m/s, 210° - -
1778028814 7.78° C 47% 1018.1 hPa 0 mm 2.68 m/s, 173° - -
1778028514 7.78° C 47% 1018.2 hPa 0 mm 1.79 m/s, 239° - -
1778028215 7.78° C 47% 1018.2 hPa 0 mm 2.24 m/s, 186° - -
1778027915 7.78° C 48% 1018.4 hPa 0 mm 1.79 m/s, 204° - -
1778027616 7.22° C 47% 1018.4 hPa 0 mm 2.24 m/s, 174° - -
1778027316 7.22° C 47% 1018.5 hPa 0 mm 3.58 m/s, 195° - -
1778027014 7.22° C 48% 1018.5 hPa 0 mm 2.68 m/s, 215° - -
1778026714 7.22° C 48% 1018.5 hPa 0 mm 2.68 m/s, 201° - -

* Rain latest hour (hover to see other rain measurements)
** Current wind speed in m/s (hover to see current wind gust speed)